Middleton, WI

4:49 PM CDT on August 24, 2016 (GMT -0500)
Middleton

Weather History for KC29 - January, 2013

Change the Weather History Date:

Friday, January 4, 2013

  Actual Average (KMSN) Record (KMSN)
Temperature  
Mean Temperature 21 °F 19 °F  
Max Temperature 31 °F 26 °F 53 °F (1880)
Min Temperature 11 °F 12 °F -26 °F (1884)
Degree Days  
Heating Degree Days 44 46  
Month to date heating degree days 184  
Since 1 July heating degree days 3063  
Cooling Degree Days 0 0  
Month to date cooling degree days 0  
Year to date cooling degree days 0  
Moisture  
Dew Point 14 °F    
Average Humidity 69    
Maximum Humidity 82    
Minimum Humidity 53    
Precipitation  
Precipitation 0.00 in 0.04 in 1.22 in (1874)
Month to date precipitation 0.16  
Year to date precipitation 0.16  
Snow  
Snow 0.00 in 0.40 in 11.70 in (1910)
Month to date snowfall 1.6  
Since 1 July snowfall 19.2  
Snow Depth -    
Sea Level Pressure  
Sea Level Pressure 30.12 in    
Wind  
Wind Speed 8 mph (WSW)    
Max Wind Speed 18 mph    
Max Gust Speed 22 mph    
Visibility 10 miles    
Events      
T = Trace of Precipitation, MM = Missing Value Source: NWS Daily Summary

Daily Weather History Graph

Daily Weather History Graph

Search for Another Location

Airport or City:

Trip Planner

Search our weather history database for the weather conditions in past years. The results will help you decide how hot, cold, wet, or windy it might be!

Date:

Astronomy

Jan. 04, 2013 Rise Set
Actual Time 7:29 AM CST 4:36 PM CST
Civil Twilight 6:57 AM CST 5:09 PM CST
Nautical Twilight 6:22 AM CST 5:44 PM CST
Astronomical Twilight 5:47 AM CST 6:19 PM CST
Moon No Moon Rise 11:00 AM CST (1/4)
Length of Visible Light 10h 11m
Length of Day
9h 06m
Waning Gibbous, 55% of the Moon is Illuminated
Jan 4
Waning Gibbous
Jan 4
Last Quarter
Jan 11
New
Jan 18
First Quarter
Jan 26
Full

Hourly Weather History & Observations

Time (CST) Temp. Windchill Dew Point Humidity Pressure Visibility Wind Dir Wind Speed Gust Speed Precip Events Conditions
12:15 AM 11.3 °F -0.4 °F 5.0 °F 76% 30.17 in 10.0 mi WSW 8.1 mph - N/A   Clear
12:35 AM 11.1 °F -1.6 °F 5.0 °F 76% 30.17 in 10.0 mi West 9.2 mph - N/A   Clear
12:55 AM 11.1 °F -2.4 °F 5.0 °F 76% 30.17 in 10.0 mi West 10.4 mph - N/A   Clear
1:15 AM 11.3 °F -2.2 °F 5.7 °F 78% 30.16 in 10.0 mi West 10.4 mph - N/A   Clear
1:35 AM 11.3 °F -2.2 °F 5.9 °F 79% 30.15 in 10.0 mi WSW 10.4 mph - N/A   Clear
1:55 AM 12.0 °F -2.0 °F 6.6 °F 79% 30.14 in 10.0 mi West 11.5 mph - N/A   Clear
2:15 AM 12.9 °F -0.9 °F 7.5 °F 79% 30.14 in 10.0 mi WSW 11.5 mph 19.6 mph N/A   Clear
2:55 AM 13.3 °F 3.0 °F 8.4 °F 81% 30.14 in 10.0 mi WSW 6.9 mph - N/A   Clear
5:35 AM 13.1 °F 2.8 °F 8.4 °F 82% 30.09 in 10.0 mi WSW 6.9 mph - N/A   Clear
5:55 AM 14.0 °F 3.9 °F 9.0 °F 80% 30.09 in 10.0 mi SW 6.9 mph - N/A   Clear
6:15 AM 14.2 °F 4.1 °F 9.3 °F 81% 30.08 in 10.0 mi SSW 6.9 mph - N/A   Clear
6:35 AM 14.4 °F 3.3 °F 9.3 °F 80% 30.09 in 10.0 mi SW 8.1 mph - N/A   Clear
6:55 AM 14.5 °F 7.1 °F 9.5 °F 80% 30.10 in 10.0 mi SW 4.6 mph - N/A   Clear
7:15 AM 14.2 °F 3.1 °F 9.3 °F 81% 30.10 in 10.0 mi SSW 8.1 mph - N/A   Clear
7:35 AM 14.7 °F 3.8 °F 9.5 °F 80% 30.10 in 10.0 mi SSW 8.1 mph - N/A   Clear
7:55 AM 14.9 °F 3.1 °F 9.5 °F 79% 30.10 in 10.0 mi SW 9.2 mph - N/A   Clear
8:15 AM 15.8 °F 6.1 °F 9.7 °F 77% 30.09 in 10.0 mi SW 6.9 mph - N/A   Clear
8:35 AM 16.9 °F 5.5 °F 10.4 °F 76% 30.08 in 10.0 mi WSW 9.2 mph - N/A   Clear
8:55 AM 18.5 °F 8.4 °F 11.1 °F 73% 30.09 in 10.0 mi WSW 8.1 mph - N/A   Clear
9:15 AM 19.8 °F 9.9 °F 11.7 °F 71% 30.09 in 10.0 mi SW 8.1 mph - N/A   Clear
9:35 AM 21.0 °F 13.4 °F 12.2 °F 69% 30.10 in 10.0 mi SSW 5.8 mph - N/A   Clear
9:55 AM 22.6 °F 16.5 °F 13.1 °F 67% 30.10 in 10.0 mi SW 4.6 mph - N/A   Clear
10:15 AM 24.4 °F 14.9 °F 14.0 °F 65% 30.10 in 10.0 mi WSW 9.2 mph - N/A   Clear
10:35 AM 25.9 °F 15.3 °F 14.4 °F 62% 30.09 in 10.0 mi WSW 11.5 mph 19.6 mph N/A   Clear
10:55 AM 27.0 °F 16.7 °F 14.7 °F 60% 30.09 in 10.0 mi West 11.5 mph 19.6 mph N/A   Clear
11:15 AM 27.5 °F 14.6 °F 14.7 °F 59% 30.08 in 10.0 mi West 18.4 mph 21.9 mph N/A   Clear
11:35 AM 28.4 °F 16.2 °F 15.1 °F 57% 30.08 in 10.0 mi West 17.3 mph 21.9 mph N/A   Clear
11:55 AM 29.1 °F 18.9 °F 15.1 °F 56% 30.08 in 10.0 mi WSW 12.7 mph - N/A   Clear
12:15 PM 29.5 °F 19.9 °F 15.4 °F 56% 30.07 in 10.0 mi WSW 11.5 mph 19.6 mph N/A   Clear
12:35 PM 30.2 °F 20.2 °F 15.4 °F 54% 30.06 in 10.0 mi WSW 12.7 mph 17.3 mph N/A   Clear
12:55 PM 30.9 °F 23.5 °F 16.0 °F 54% 30.06 in 10.0 mi WSW 8.1 mph - N/A   Clear
1:15 PM 31.5 °F 24.9 °F 16.2 °F 53% 30.06 in 10.0 mi West 6.9 mph - N/A   Clear
1:35 PM 31.8 °F 22.8 °F 16.9 °F 54% 30.06 in 10.0 mi West 11.5 mph - N/A   Clear
1:55 PM 31.8 °F 22.3 °F 16.7 °F 54% 30.06 in 10.0 mi West 12.7 mph - N/A   Clear
2:15 PM 31.6 °F 21.6 °F 16.7 °F 54% 30.07 in 10.0 mi West 13.8 mph 18.4 mph N/A   Clear
2:35 PM 31.8 °F 23.3 °F 17.1 °F 55% 30.08 in 10.0 mi West 10.4 mph - N/A   Clear
2:55 PM 31.5 °F 23.5 °F 17.1 °F 55% 30.08 in 10.0 mi West 9.2 mph - N/A   Clear
3:15 PM 31.8 °F 26.2 °F 17.1 °F 55% 30.09 in 10.0 mi WSW 5.8 mph - N/A   Clear
3:35 PM 31.6 °F 28.3 °F 16.9 °F 54% 30.10 in 10.0 mi SW 3.5 mph - N/A   Clear
3:55 PM 30.2 °F 24.3 °F 17.1 °F 58% 30.10 in 10.0 mi WSW 5.8 mph - N/A   Clear
4:15 PM 29.3 °F 25.6 °F 17.1 °F 60% 30.11 in 10.0 mi SSW 3.5 mph - N/A   Clear
4:35 PM 27.5 °F 22.2 °F 16.7 °F 64% 30.12 in 10.0 mi SSW 4.6 mph - N/A   Clear
4:55 PM 27.1 °F 23.2 °F 16.5 °F 64% 30.12 in 10.0 mi SSW 3.5 mph - N/A   Clear
5:15 PM 27.1 °F 20.7 °F 16.5 °F 64% 30.13 in 10.0 mi SW 5.8 mph - N/A   Clear
5:35 PM 27.0 °F 21.6 °F 16.5 °F 65% 30.14 in 10.0 mi SW 4.6 mph - N/A   Clear
5:55 PM 26.4 °F 20.9 °F 16.3 °F 66% 30.15 in 10.0 mi SW 4.6 mph - N/A   Clear
6:15 PM 25.5 °F 19.9 °F 16.0 °F 67% 30.15 in 10.0 mi WSW 4.6 mph - N/A   Clear
6:35 PM 26.1 °F 21.9 °F 16.3 °F 67% 30.15 in 10.0 mi WSW 3.5 mph - N/A   Clear
6:55 PM 25.7 °F 21.5 °F 16.3 °F 68% 30.16 in 10.0 mi SSW 3.5 mph - N/A   Clear
7:15 PM 25.7 °F 19.0 °F 16.5 °F 68% 30.16 in 10.0 mi SW 5.8 mph - N/A   Clear
7:35 PM 24.6 °F 18.8 °F 16.0 °F 70% 30.16 in 10.0 mi SW 4.6 mph - N/A   Clear
7:55 PM 23.4 °F - 15.4 °F 72% 30.16 in 10.0 mi Calm Calm - N/A   Clear
8:15 PM 23.5 °F - 16.0 °F 73% 30.16 in 10.0 mi Calm Calm - N/A   Clear
8:35 PM 24.3 °F 18.4 °F 16.5 °F 72% 30.16 in 10.0 mi SW 4.6 mph - N/A   Clear
8:55 PM 23.9 °F 19.5 °F 16.5 °F 73% 30.16 in 10.0 mi SW 3.5 mph - N/A   Clear
9:15 PM 20.7 °F - 13.8 °F 75% 30.16 in 10.0 mi Calm Calm - N/A   Clear
9:35 PM 23.0 °F - 16.7 °F 77% 30.16 in 10.0 mi Calm Calm - N/A   Clear
9:55 PM 21.9 °F 17.2 °F 16.0 °F 78% 30.16 in 10.0 mi WSW 3.5 mph - N/A   Clear
10:15 PM 23.0 °F 17.0 °F 17.1 °F 78% 30.17 in 10.0 mi SW 4.6 mph - N/A   Clear
10:35 PM 21.4 °F - 16.0 °F 80% 30.17 in 10.0 mi Calm Calm - N/A   Clear
10:55 PM 21.6 °F - 16.7 °F 82% 30.17 in 10.0 mi Calm Calm - N/A   Clear
11:15 PM 23.0 °F 15.8 °F 17.1 °F 78% 30.17 in 10.0 mi West 5.8 mph - N/A   Clear
11:35 PM 22.1 °F 17.4 °F 16.3 °F 79% 30.17 in 10.0 mi WSW 3.5 mph - N/A   Clear
11:55 PM 19.9 °F - 15.1 °F 81% 30.16 in 10.0 mi Calm Calm - N/A   Clear